星链-30362 (STARLINK-30362 )

导读

STARLINK-30362是美国SpaceX公司星链(Starlink)卫星互联网项目的低轨通信卫星,于2023年9月1日发射入轨。作为星链星座的组成部分,它运行在近地轨道,依托星链系统的相控阵天线与激光星间链路技术,为全球偏远地区、特殊场景提供高速低延迟宽带互联网接入服务,是星链实现全球覆盖计划中的重要节点,也加剧了近地轨道空间资源竞争与天文观测影响的争议。

基本信息
目录编号:
57745
目录名称:
STARLINK-30362
国际标识:
2023-131P
轨道中心:
EARTH
卫星名称:
星链-30362
卫星全名:
星链-30362 (STARLINK-30362 )
卫星状态:
在轨 (已飞行1021 天)
发射日期:
2023-09-01 UTC
国别 :
美国 (US)
星等 :
--
轨道信息
数据来源 国际轨道数据
星历时间: 2026-06-17T11:43:14+0800
1天前
查看轨道信息
半长轴: 6861.187km
偏心率: 0.0001215
轨道倾角: 43.004°
近地点辐角 273.941°
升交点赤经 331.128°
平近点角 86.130°
近地点: 482.216km
远地点: 483.884km
周期: 94.267分钟
每日圈数: 15.275798
详细信息
固有亮度:
5
最大亮度:
0.3
卫星平台:
Starlink v2.0 mini
覆盖范围:
全球
运营商:
太空探索技术公司
运营商所在国:
美国
制造商(研发单位):
太空探索技术公司
制造商所在国:
美国
使用方式:
暂无
卫星简介
星链(Starlink)计划是由太空探索技术公司(SpaceX)提出的一个巨型低轨卫星互联网星座项目,计划在2019年至2024年间在太空搭建由约1.2万颗卫星组成的“星链”网络,其中1584颗将部署在地球上空550千米处的近地轨道,并从2020年开始工作。该卫星仍在工作。
2D轨道图
3D轨道图
轨道高度分析图
轨道倾角分析图
轨道综合分析图
查看轨道综合分析图